Regional Weather Roundup
Issued by NWS

Home | Current Version | Previous Version | Graphics & Text | Print | Product List | Glossary On
Versions: 1 2 3 4 5 6 7 8 9 10 11 12 13 14 15 16 17 18 19 20 21 22 23 24 25 26 27 28 29 30 31 32 33 34 35 36 37 38 39 40 41 42 43 44 45 46 47 48 49 50
930
ASUS45 KCYS 231510
RWRWY

WYOMING REGIONAL WEATHER ROUNDUP
NATIONAL WEATHER SERVICE CHEYENNE WY
800 AM MST MON JAN 23 2017

NOTE:  "FAIR" INDICATES FEW OR NO CLOUDS BELOW 12,000 FEET
WITH NO SIGNIFICANT WEATHER AND/OR OBSTRUCTIONS TO VISIBILITY.

WYZ001-231600-
YELLOWSTONE NATIONAL PARK

CITY           SKY/WX    TMP DP  RH WIND       PRES   REMARKS
LK YELLOWSTONE   N/A      4   3  96 CALM      29.57S
W YELLOWSTONE  NOT AVBL

$$
WYZ002>013-054>058-071-098>099-231600-
NORTHERN WYOMING

CITY           SKY/WX    TMP DP  RH WIND       PRES   REMARKS
JACKSON        MOCLDY    14  14 100 CALM      29.57S
CODY           FAIR      16  12  84 SW3       29.58F
GREYBULL       FAIR      13   9  84 SE5       29.61F WCI   5
WORLAND        FAIR      15  13  91 E8        29.60R WCI   4
SHERIDAN       FAIR      15  12  88 VRB6      29.61R WCI   6
BUFFALO        FAIR      28  14  55 W5        29.57S WCI  23
GILLETTE       FAIR      23  21  92 SW3       29.58S
HULETT         PTSUNNY   21  18  86 E3        29.60S
NEWCASTLE      PTSUNNY   28  28 100 SE6       29.61F WCI  22

$$
WYZ014>020-022>026-101>103-231600-
CENTRAL WYOMING

CITY           SKY/WX    TMP DP  RH WIND       PRES   REMARKS
BIG PINEY      LGT SNOW  17  16  95 CALM      29.58S VSB 3/4
PINEDALE       FAIR      10  10 100 NW6       29.58S FOG     WCI   1
DUBOIS         NOT AVBL
LANDER         FAIR      19  12  74 CALM      29.55F
RIVERTON       FAIR     N/A N/A N/A N5        29.58S
CASPER         FAIR      18  16  92 W6        29.59F WCI  10
DOUGLAS        FAIR      26  21  81 W3        29.61R

$$
WYZ021-027>030-104>119-231600-
SOUTHERN WYOMING

CITY           SKY/WX    TMP DP  RH WIND       PRES   REMARKS
EVANSTON       LGT SNOW  21  18  88 E14       29.50F FOG     WCI   8
ROCK SPRINGS   MOCLDY    26  18  71 SE8       29.57S WCI  18
RAWLINS        CLOUDY    30  23  75 SW20      29.59F WCI  17
LARAMIE        FAIR      27  21  78 SW12      29.60S WCI  17
CHEYENNE       FAIR      28  19  69 W8        29.60R WCI  20
TORRINGTON     FAIR      23  18  81 SE5       29.63S WCI  17

$$




USA.gov is the U.S. government's official web portal to all federal, state and local government web resources and services.